Location: Bavegemberg
(50.9500°N, 3.8833°E)
Time: 04:49:26
(UTC+00:00)

ALOS - Pass Details

Date: 23 May 2024
Orbit: 672 x 676 km, 98.0° (Epoch: 19 June)

Event Time Altitude Azimuth Distance (km) Brightness Sun altitude
Rises 02:58:18 0° 12° (NNE) 3,041 6.7 -6.4°
Reaches altitude 10° 03:00:34 10° 10° (N) 2,121 5.7 -6.1°
Maximum altitude 03:05:10 68° 288° (WNW) 732 2.3 -5.6°
Drops below altitude 10° 03:09:43 10° 206° (SSW) 2,103 4.2 -5.0°
Enters shadow 03:11:07 - 205° (SSW) 2,668 4.7 -4.9°
